CW0009 Weather Reports


Display with metric or nautical units.
time (UTC)temp
F
wind
direction
speed
MPH
gust
MPH
rain 1hr
in
rain 24hr
in
rain mn
in
humidity
%
barometer
mb
20170430105011 67 105 10.0 10.0 0.00 0.00 0.00 54 1007.0
20170430104012 67 105 10.0 10.0 0.00 0.00 0.00 54 1007.0
20170430102011 64 105 10.0 10.0 0.00 0.00 0.00 58 1009.0
20170430101011 64 105 10.0 10.0 0.00 0.00 0.00 58 1009.0
20170430100011 64 105 10.0 10.0 0.00 0.00 0.00 58 1009.0
20170430095033 56 105 10.0 10.0 0.00 0.00 0.00 68 1009.0
20170430094011 56 105 10.0 10.0 0.00 0.00 0.00 68 1009.0
20170430093013 56 105 10.0 10.0 0.00 0.00 0.00 68 1009.0
20170430092012 56 105 10.0 10.0 0.00 0.00 0.00 68 1009.0
20170430091011 56 105 9.0 10.0 0.00 0.00 0.00 68 1009.0
20170430090011 56 105 8.0 10.0 0.00 0.00 0.00 68 1009.0
20170430085012 56 120 7.0 7.0 0.00 0.00 0.00 68 1009.0
20170430084011 56 120 8.0 8.0 0.00 0.00 0.00 68 1009.0
20170430083012 56 85 8.0 8.0 0.00 0.00 0.00 68 1009.0
20170430082012 56 85 8.0 8.0 0.00 0.00 0.00 68 1009.0
20170430081011 56 85 8.0 8.0 0.00 0.00 0.00 68 1010.0
20170430080031 56 110 8.0 8.0 0.00 0.00 0.00 68 1010.0
20170430075033 56 110 7.0 8.0 0.00 0.00 0.00 69 1010.0
20170430074033 56 70 7.0 7.0 0.00 0.00 0.00 69 1010.0
20170430073014 56 70 6.0 7.0 0.00 0.00 0.00 70 1011.0
20170430072032 55 125 5.0 5.0 0.00 0.00 0.00 71 1011.0
20170430071012 54 125 5.0 5.0 0.00 0.00 0.00 73 1011.0
20170430065011 50 125 5.0 5.0 0.00 0.00 0.00 78 1011.0
20170430064033 14 125 3.0 5.0 0.00 0.00 0.00 78 1011.0
20170430063013 47 125 2.0 5.0 0.00 0.00 0.00 79 1011.0
20170430062011 46 130 1.0 1.0 0.00 0.00 0.00 80 1011.0
20170430061012 42 130 1.0 1.0 0.00 0.00 0.00 82 1011.0
20170430060033 42 130 1.0 1.0 0.00 0.00 0.00 82 1011.0
20170430055011 42 130 2.0 1.0 0.00 0.00 0.00 82 1011.0
20170430054032 42 145 4.0 5.0 0.00 0.00 0.00 82 1011.0
20170430053014 42 50 5.0 5.0 0.00 0.00 0.00 82 1012.0
20170430052012 42 50 5.0 5.0 0.00 0.00 0.00 82 1012.0
20170430051012 42 50 5.0 5.0 0.00 0.00 0.00 82 1012.0
20170430050011 42 50 5.0 5.0 0.00 0.00 0.00 82 1012.0
20170430045033 42 50 5.0 5.0 0.00 0.00 0.00 82 1012.0
20170430044033 42 50 2.0 5.0 0.00 0.00 0.00 82 1012.0
20170430043013 42 50 1.0 5.0 0.00 0.00 0.00 82 1012.0
20170430042012 42 50 1.0 1.0 0.00 0.00 0.00 81 1012.0
20170430041012 42 50 1.0 1.0 0.00 0.00 0.00 81 1012.0
20170430040012 42 50 1.0 1.0 0.00 0.00 0.00 81 1012.0
20170430035012 42 50 1.0 1.0 0.00 0.00 0.00 81 1012.0
20170430034033 42 50 1.0 1.0 0.00 0.00 0.00 81 1012.0
20170430033013 42 50 1.0 1.0 0.00 0.00 0.00 80 1013.0
20170430032012 42 50 1.0 1.0 0.00 0.00 0.00 80 1013.0
20170430031012 42 50 0.0 1.0 0.00 0.00 0.00 80 1013.0
20170430025011 43 50 0.0 0.0 0.00 0.00 0.00 80 1013.0
20170430024012 43 50 0.0 0.0 0.00 0.00 0.00 80 1013.0
20170430023013 43 50 0.0 0.0 0.00 0.00 0.00 80 1013.0
20170430022032 43 50 0.0 0.0 0.00 0.00 0.00 80 1013.0
20170430021012 43 50 0.0 0.0 0.00 0.00 0.00 80 1013.0
20170430020033 43 50 0.0 0.0 0.00 0.00 0.00 79 1013.0
20170430015011 43 50 0.0 0.0 0.00 0.00 0.00 79 1013.0
20170430014011 43 50 0.0 0.0 0.00 0.00 0.00 79 1013.0
20170430013035 44 50 0.0 0.0 0.00 0.00 0.00 79 1013.0
20170430012012 44 50 0.0 0.0 0.00 0.00 0.00 79 1013.0
20170430011033 44 50 1.0 1.0 0.00 0.00 0.00 79 1013.0
20170430005012 45 50 0.0 1.0 0.00 0.00 0.00 79 1015.0
20170430004011 45 50 0.0 1.0 0.00 0.00 0.00 79 1015.0
20170430003034 45 50 0.0 1.0 0.00 0.00 0.00 79 1015.0
20170430001011 45 50 0.0 1.0 0.00 0.00 0.00 79 1015.0
20170430000033 45 50 0.0 1.0 0.00 0.00 0.00 79 1015.0
20170429235012 45 50 0.0 1.0 0.00 0.00 0.00 79 1015.0
20170429234012 45 50 0.0 1.0 0.00 0.00 0.00 79 1015.0
20170429233034 45 50 1.0 1.0 0.00 0.00 0.00 79 1015.0
20170429232012 45 50 0.0 1.0 0.00 0.00 0.00 79 1015.0
20170429231012 45 50 0.0 0.0 0.00 0.00 0.00 79 1015.0
20170429230015 45 50 0.0 0.0 0.00 0.00 0.00 79 1015.0
20170429225014 45 50 0.0 0.0 0.00 0.00 0.00 79 1015.0
20170429224035 46 50 0.0 0.0 0.00 0.00 0.00 77 1015.0
20170429223016 46 50 0.0 0.0 0.00 0.00 0.00 77 1015.0
20170429222036 47 50 1.0 0.0 0.00 0.00 0.00 76 1015.0
20170429220014 47 50 1.0 0.0 0.00 0.00 0.00 76 1015.0
20170429215015 47 50 1.0 1.0 0.00 0.00 0.00 76 1015.0
20170429214014 47 50 1.0 1.0 0.00 0.00 0.00 76 1015.0
20170429213016 47 50 1.0 1.0 0.00 0.00 0.00 76 1015.0
20170429212014 47 50 0.0 1.0 0.00 0.00 0.00 76 1015.0
20170429211014 47 50 0.0 0.0 0.00 0.00 0.00 76 1015.0
20170429210015 48 50 0.0 0.0 0.00 0.00 0.00 75 1015.0
20170429204014 49 50 0.0 0.0 0.00 0.00 0.00 74 1015.0
20170429203015 49 50 0.0 0.0 0.00 0.00 0.00 74 1015.0
20170429201035 56 50 0.0 0.0 0.00 0.00 0.00 62 1015.0
20170429200013 56 50 0.0 0.0 0.00 0.00 0.00 62 1015.0
20170429195015 56 50 0.0 0.0 0.00 0.00 0.00 62 1015.0
20170429194014 56 50 0.0 0.0 0.00 0.00 0.00 62 1015.0
20170429193016 56 50 0.0 0.0 0.00 0.00 0.00 62 1015.0
20170429192014 56 50 0.0 0.0 0.00 0.00 0.00 62 1015.0
20170429191014 56 50 0.0 0.0 0.00 0.00 0.00 62 1016.0
20170429190014 56 50 0.0 1.0 0.00 0.00 0.00 62 1016.0
20170429185014 56 50 0.0 1.0 0.00 0.00 0.00 62 1016.0
20170429184036 56 50 0.0 0.0 0.00 0.00 0.00 62 1016.0
20170429183015 56 50 0.0 0.0 0.00 0.00 0.00 62 1016.0
20170429182014 56 30 0.0 0.0 0.00 0.00 0.00 62 1016.0
20170429180013 56 30 0.0 0.0 0.00 0.00 0.00 62 1016.0
20170429175035 56 30 0.0 0.0 0.00 0.00 0.00 62 1016.0
20170429173015 57 30 0.0 0.0 0.00 0.00 0.00 62 1016.0
20170429172014 57 30 0.0 0.0 0.00 0.00 0.00 62 1016.0
20170429170014 57 30 0.0 0.0 0.00 0.00 0.00 62 1016.0
20170429165014 57 30 0.0 0.0 0.00 0.00 0.00 62 1016.0
20170429164014 57 30 0.0 0.0 0.00 0.00 0.00 62 1016.0
20170429163038 58 30 0.0 0.0 0.00 0.00 0.00 62 1016.0
20170429162015 58 30 0.0 0.0 0.00 0.00 0.00 62 1016.0
20170429160015 58 30 0.0 0.0 0.00 0.00 0.00 62 1017.0
20170429155036 58 30 0.0 0.0 0.00 0.00 0.00 62 1017.0
20170429154014 58 30 0.0 0.0 0.00 0.00 0.00 62 1017.0
20170429152036 58 30 2.0 0.0 0.00 0.00 0.00 62 1017.0
20170429151035 59 30 5.0 5.0 0.00 0.00 0.00 63 1017.0
20170429150036 59 45 5.0 5.0 0.00 0.00 0.00 63 1017.0
20170429145014 59 45 5.0 5.0 0.00 0.00 0.00 63 1017.0
20170429144015 59 45 5.0 5.0 0.00 0.00 0.00 63 1017.0
20170429143015 59 45 5.0 5.0 0.00 0.00 0.00 63 1017.0
20170429142013 59 45 5.0 5.0 0.00 0.00 0.00 63 1017.0
20170429141015 59 45 5.0 5.0 0.00 0.00 0.00 63 1017.0
20170429140015 59 45 5.0 5.0 0.00 0.00 0.00 63 1017.0
20170429135013 58 45 5.0 5.0 0.00 0.00 0.00 67 1017.0
20170429133014 58 45 3.0 5.0 0.00 0.00 0.00 67 1018.0
20170429132013 58 45 1.0 5.0 0.00 0.00 0.00 67 1018.0
20170429131013 58 130 0.0 0.0 0.00 0.00 0.00 67 1018.0
20170429125012 58 130 0.0 0.0 0.00 0.00 0.00 67 1018.0
20170429124034 58 130 0.0 0.0 0.00 0.00 0.00 67 1018.0
20170429123014 58 130 0.0 0.0 0.00 0.00 0.00 67 1018.0
20170429122013 59 130 0.0 0.0 0.00 0.00 0.00 66 1018.0
20170429121013 59 130 0.0 0.0 0.00 0.00 0.00 66 1018.0
20170429120012 59 130 0.0 0.0 0.00 0.00 0.00 66 1018.0
20170429115012 59 130 0.0 0.0 0.00 0.00 0.00 66 1018.0
20170429114014 59 130 0.0 0.0 0.00 0.00 0.00 66 1018.0
20170429113036 59 130 0.0 0.0 0.00 0.00 0.00 66 1018.0
20170429112013 59 130 0.0 0.0 0.00 0.00 0.00 66 1018.0
20170429111013 59 130 0.0 0.0 0.00 0.00 0.00 66 1018.0
20170429110012 59 130 1.0 0.0 0.00 0.00 0.00 66 1018.0
20170429105034 60 130 3.0 6.0 0.00 0.00 0.00 67 1018.0